Showing default

GALILEO 9 (205), 40889

Orbit data source: Space-Track

GALILEO 9 (205), 40889 is a payload satellite owned by GNSS Agency (ESA) that was launched on Fri, 11 Sep 2015 UTC via a SOYUZ-ST-B launch vehicle from the French Guiana (FRGUI). Payload-class satellites include a variety of spacecraft equipped with specific instruments for various scientific and technological missions. These include communications satellites like Starlink; space stations such as the ISS; scientific satellites like the Hubble; Earth observation satellites from companies like Planet Labs, Umbra, and HawkEye 360; GPS; miniature CubeSats for education and research; and military/defense satellites.

Loading next visibility...
Identifier
40889, 2015-045A
Orbit
Active
Country
Flag of ESAESA
Related business
Manufacturer
OHB
Mission
Operational Civil Navigation
Bus & Motor
GALILEOSAT, AOCS
Mass
733 kg wet, 660 kg dry
Launch date (UTC)
2015-09-11 (10 years ago)
Launch vehicle
SOYUZ-ST-B
Launch site
French Guiana (FRGUI)
Object type
Payload
Rocket body
Debris
Shape & HBR
Box + 2 Pan, 7.3 m
Radar Cross Section
9.223 m², Large (>1 m²)

Expand to show TLE details & history
Last TLE update: 1 month ago

TLE from 1 month ago
0 GALILEO 9 (205)
1 40889U 15045A   26003.99326098  .00000062  00000-0  00000-0 0  9999
2 40889  54.9968 226.1424 0006353  44.5343 315.6036  1.70473089 64219
Epoch: 2026-01-03T23:50Z
TLE epoch observation values (Epoch: 2026-01-03T23:50:17.748Z)
Latitude
0.00002°
Longitude
124.97663°
Altitude
23,209.114 km
Speed
3.671 km/s
True Right ascension
15h 04m 38s
True Declination
0° 00' 00"
Sunlit
Object was in daylight at epoch
Visualization orbit readout
Latitude
Unknown
Longitude
Unknown
Altitude
Unknown
Speed
Unknown
Apparent Right ascension
Unknown
Apparent Declination
Unknown
Sunlit
N/A
Visualization observer readout
Local Sidereal Time
08:33:17
Azimuth
Unknown
Elevation
Unknown
Doppler factor
Unknown
Orbital elements
Apogee altitude
23,241.102 km
Perigee altitude
23,203.492 km
Semi-major axis
29,600.434 km
Eccentricity
0.00064
Inclination
54.9968°
RAAN
226.1424°
Arg. of periapsis
44.5343°
True anomaly
315.55264°
Mean anomaly
315.6036°
Eccentric anomaly
315.57812°
Mean motion
0.42618 °/min
Orbital period
844.71 mins
BSTAR
0
Loading maneuver chart data...
Computing Atmospheric mass density...
Loading historical data...
Loading historical data...
Loading historical data...
Loading historical data...
Loading historical data...
Loading historical data...
Loading historical data...
Other satellites on launch #45 in the year 2015 (2015-09-11 UTC)

Documentation

Showing up to 5 results
|